Location: Amsterdam
(30.7274°N, 84.4357°W)
Time: 17:43:39
(UTC+00:00)

Transit 2A Rocket - Pass Details

Date: 19 February 2026
Orbit: 583 x 900 km, 66.7° (Epoch: 12 March)

Event Time Altitude Azimuth Distance (km) Brightness Sun altitude
Rises 19:28:48 0° 168° (SSE) 3,410 8.8 42.1°
Reaches altitude 10° 19:31:47 10° 153° (SSE) 2,514 8.1 41.8°
Maximum altitude 19:36:07 22° 105° (ESE) 1,863 7.1 41.2°
Drops below altitude 10° 19:40:32 10° 58° (ENE) 2,574 7.4 40.7°
Sets 19:43:36 0° 43° (NE) 3,514 8.0 40.3°
